User: anonymous
Location: Unspecified
(0.0000°N, 0.0000°E)
Time: 11:08:54
(UTC+02:00)
Language:

Ariane H10 - Orbit

View from above orbital plane
View from above orbital plane
View from above satellite
View from above satellite

Ground track
Ground track

The orbit data is extracted from the following two-line orbital elements,

1 19622U 88098B   14244.81222240  .00003057  00000-0  98480-3 0  8669
2 19622 003.8741 129.6979 6463347 327.2763 017.5030 03.35373686269547
Epoch (UTC): 01 September 2014 19:29:36
Eccentricity: 0.6463347
inclination: 3.8741°
perigee height: 289 km
apogee height: 24660 km
right ascension of ascending node: 129.6979°
argument of perigee: 327.2763°
revolutions per day: 3.35373686
mean anomaly at epoch: 17.5030°
orbit number at epoch: 26954

The dashed part of the orbit path shows where the satellite is in the earth's shadow,  

DLR